EHI
5 5 4 3 3 4 4 5 5 3 2 6 12 17 18 13 7 6 5 2 0 0 0 0 0 0 0 0 0 0 0 0 0 0 0 0 0 0
7 7 5 4 5 5 6 6 7 5 4 4 8 13 16 12 8 9 8 4 0 0 0 0 0 0 0 0 0 0 0 0 0 0 0 0 0 0
10 9 7 7 7 8 8 7 6 5 4 4 6 12 16 14 12 13 11 5 1 0 0 0 0 0 0 0 0 0 0 0 0 0 0 0 0 0
10 10 9 8 8 9 8 6 5 5 4 5 7 12 15 16 14 12 9 5 2 1 0 0 0 0 0 0 0 0 0 0 0 0 0 0 0 0
9 9 8 8 9 9 7 5 5 5 5 5 6 8 11 13 14 11 8 5 4 1 0 0 0 0 0 0 0 0 0 0 0 0 0 0 0 0
7 7 7 8 9 8 6 4 5 4 4 5 5 6 8 11 13 12 8 7 6 3 1 1 1 0 0 0 0 0 0 0 0 0 0 0 0 0
7 7 6 6 6 5 3 2 3 4 4 5 6 5 7 9 11 10 8 7 7 5 3 2 2 2 2 1 0 0 0 0 0 0 0 0 0 0
9 8 5 3 3 3 1 1 2 3 5 6 6 7 7 8 8 7 5 5 6 6 6 4 5 5 5 3 1 0 0 0 0 0 0 0 0 0
10 9 6 3 2 3 2 1 1 2 3 5 6 7 8 9 8 7 5 5 5 7 8 6 6 6 6 4 1 0 0 0 0 0 0 0 0 0
8 9 8 6 3 3 4 3 2 2 2 3 4 5 7 8 9 9 8 6 5 6 8 7 6 5 5 3 1 0 0 0 0 0 0 0 0 0
7 7 6 6 5 3 4 5 5 4 4 3 3 3 4 4 5 7 8 7 5 5 7 7 6 4 3 2 2 1 0 0 0 0 0 0 0 0
5 4 2 2 3 2 3 5 6 5 6 6 4 4 4 4 3 4 7 7 5 4 5 7 6 3 1 1 1 1 0 0 0 0 0 0 0 0
3 2 1 0 1 1 2 4 4 4 6 7 6 4 5 6 5 5 7 7 5 3 4 5 4 3 1 0 0 0 0 0 0 0 0 0 0 0
1 1 1 0 0 0 0 1 1 2 4 6 6 5 6 7 7 9 10 8 5 2 2 3 3 2 1 0 0 0 0 0 0 0 0 0 0 0
0 0 0 0 0 0 0 0 0 1 4 5 5 6 6 6 8 10 12 11 7 3 1 2 2 2 0 0 0 0 0 0 0 0 0 0 0 1
0 0 0 1 1 1 1 1 2 3 4 5 5 6 6 6 7 9 11 11 8 4 3 3 3 2 1 0 0 0 0 0 0 0 0 0 0 1
0 0 1 2 2 2 3 4 4 4 4 4 4 5 6 5 5 5 7 7 6 4 3 3 3 2 1 0 0 0 0 0 0 0 0 0 0 1
0 0 1 3 3 3 3 4 4 3 3 3 3 4 4 4 3 2 2 2 2 1 1 2 1 1 0 0 0 0 0 0 0 0 0 0 0 0
1 1 2 3 3 3 3 3 3 3 3 3 3 3 3 2 1 0 0 0 0 0 0 0 0 0 0 0 0 0 0 0 0 0 0 0 0 0
2 2 2 2 3 3 3 3 3 3 3 3 3 3 2 1 0 0 0 0 0 0 0 0 0 0 0 0 0 0 0 0 0 0 0 0 0 0
3 2 1 1 2 3 3 3 3 3 3 3 3 2 1 0 0 0 0 0 0 0 0 0 0 0 0 0 0 0 0 0 0 0 0 0 0 0
3 2 1 1 2 3 3 3 3 3 3 3 2 1 0 0 0 0 0 0 0 0 0 0 0 0 0 0 0 0 0 0 0 0 0 0 0 0
3 3 2 2 3 3 3 3 3 3 3 2 1 0 0 0 0 0 0 0 0 0 0 0 0 0 0 0 0 0 0 0 0 0 0 0 0 0
Wind_Speed
2 2 2 2 2 2 2 1 1 2 2 1 0 1 1 2 4 3 3 6 7 7 8 8 7 7 7 7 7 8 8 8 8 9 9 10 11 12
1 2 2 3 3 2 3 2 1 1 2 2 1 1 0 1 2 2 3 6 8 8 9 9 9 8 8 8 8 8 8 8 8 9 9 9 9 10
2 2 2 3 3 3 3 2 2 1 2 3 2 2 1 1 0 1 2 3 4 8 10 10 9 9 9 8 9 9 9 8 9 9 9 10 9 9
2 2 3 2 2 3 3 3 2 2 2 3 2 2 2 1 1 2 3 3 3 7 10 10 10 10 10 9 10 10 10 9 9 9 9 9 10 10
2 2 2 2 3 3 3 3 3 3 2 2 3 2 2 2 1 2 4 3 4 4 8 10 11 11 11 11 11 11 11 10 10 9 9 9 9 9
2 3 2 2 2 3 3 3 3 3 2 2 3 2 2 2 1 2 3 2 3 4 3 5 7 10 11 11 11 11 10 10 10 9 9 9 9 9
3 3 3 2 3 2 3 2 2 2 2 2 3 3 2 2 2 2 3 3 3 3 3 3 3 4 6 9 10 10 10 10 10 9 9 8 8 8
3 3 3 1 2 2 3 3 2 2 3 3 3 3 3 3 3 3 3 3 4 3 3 4 3 4 4 4 7 9 9 9 9 9 8 8 8 8
2 3 4 4 3 2 2 3 3 4 5 4 4 4 4 4 3 4 3 4 4 3 3 5 4 3 3 4 8 9 9 9 9 9 9 9 8 8
2 2 1 2 4 3 3 3 3 4 5 4 4 5 4 3 3 4 5 5 4 4 3 4 4 3 3 2 5 8 9 9 9 9 9 9 9 9
2 2 2 2 4 4 3 4 4 4 5 5 6 6 6 6 4 3 4 4 5 4 3 3 4 3 2 2 3 7 8 8 9 9 8 8 8 7
1 1 3 2 4 4 3 3 5 5 5 5 5 6 5 6 6 4 4 4 4 4 3 2 3 2 2 2 1 2 4 6 7 7 7 7 8 5
2 1 2 2 3 4 5 4 6 6 5 5 4 4 3 3 3 4 4 3 4 3 2 2 2 2 2 2 1 2 2 2 3 4 5 6 7 6
2 2 2 2 4 5 5 6 8 7 4 4 3 3 2 2 2 2 3 4 4 4 3 2 2 2 2 2 2 1 1 2 2 3 3 5 5 6
3 4 5 6 7 6 6 8 6 4 4 3 3 3 2 2 2 2 3 3 4 5 4 3 3 2 2 3 3 2 1 1 1 1 2 2 3 3
3 5 6 7 7 6 5 4 3 3 3 3 3 3 2 2 2 2 2 2 3 3 3 2 3 3 3 3 2 2 1 1 1 1 1 2 2 3
4 4 3 3 3 3 3 3 2 2 2 3 3 3 3 2 2 2 2 3 2 2 2 1 1 1 2 1 1 1 1 1 1 1 1 1 1 2
4 4 3 3 3 3 3 3 3 3 3 3 3 3 3 2 2 2 2 3 3 2 1 1 1 1 1 1 1 1 1 1 1 1 1 2 1 1
2 3 3 3 3 4 3 3 3 3 3 3 3 3 3 2 2 2 2 3 3 2 2 1 1 1 1 2 1 1 1 1 1 1 1 1 1 1
2 3 3 3 3 3 3 3 3 3 3 3 3 3 3 2 3 3 3 3 3 3 2 2 1 1 2 2 1 1 1 2 1 1 1 0 1 1
3 3 3 4 3 3 3 3 3 3 3 3 3 3 3 3 3 3 3 3 3 3 3 2 2 2 1 1 0 0 0 1 1 1 1 1 1 1
3 4 3 3 3 3 3 3 3 3 4 4 4 3 3 2 3 3 3 3 2 2 3 2 1 1 1 2 2 1 1 1 1 1 1 0 1 2
3 3 3 3 3 3 4 4 5 4 4 4 4 4 3 2 2 2 3 2 2 2 3 2 1 1 1 2 2 1 1 2 2 2 0 1 2 2
Wind_Direction
327 328 310 307 309 314 314 310 295 295 292 273 261 179 159 135 158 187 174 190 200 208 213 216 220 224 227 233 238 239 237 237 239 241 239 236 234 231
294 316 316 312 310 306 311 317 307 280 288 312 300 277 152 216 180 205 209 198 202 211 214 216 220 225 228 230 233 233 232 233 236 236 237 234 232 231
301 305 299 300 314 320 319 317 311 311 281 296 315 337 345 309 204 247 238 208 207 214 213 214 219 225 228 229 231 230 228 231 235 236 237 232 228 228
305 311 305 303 306 299 303 296 291 286 272 279 294 305 299 282 228 240 263 253 230 218 214 215 219 225 227 229 229 228 227 228 231 233 235 231 228 227
317 310 297 304 298 293 284 285 288 291 280 277 284 291 290 287 272 274 278 286 279 241 220 219 224 228 229 229 229 226 226 227 230 230 230 232 232 228
317 306 296 290 285 290 292 282 286 296 293 285 284 288 293 300 288 284 290 283 282 282 262 238 233 232 233 231 229 225 223 225 228 229 229 229 229 226
316 309 303 305 312 297 301 312 304 299 301 296 291 295 294 305 299 285 281 282 274 268 271 251 232 233 233 235 232 226 225 224 222 221 221 222 224 220
318 317 309 308 304 272 275 286 292 271 274 280 289 290 289 284 288 284 290 295 290 276 277 272 249 236 227 217 218 217 216 214 217 218 218 217 217 214
306 309 312 333 350 330 291 274 268 260 247 256 272 277 278 280 284 286 284 282 281 286 293 279 273 264 257 236 205 204 205 209 213 214 215 215 213 211
288 296 314 329 329 332 303 291 270 268 259 248 252 262 270 276 272 272 275 277 274 269 258 270 275 266 267 235 203 198 199 202 206 208 209 209 208 209
322 355 346 350 350 337 316 301 295 290 282 270 258 258 263 273 281 289 278 272 275 269 249 254 265 267 256 253 220 203 197 198 203 206 208 209 207 207
333 9 13 13 351 330 301 297 294 293 300 294 278 268 257 252 250 246 262 269 274 276 273 263 268 270 271 248 223 196 201 205 206 207 208 212 205 199
317 331 3 9 344 313 300 287 280 288 286 280 268 259 249 240 236 233 238 251 264 269 293 310 290 280 262 275 264 220 194 191 194 206 209 209 203 195
330 333 354 346 321 306 296 290 295 297 284 279 277 274 271 265 258 249 242 242 243 251 276 293 276 277 272 275 276 260 211 195 191 196 191 194 204 204
318 321 314 301 296 287 275 286 293 285 282 282 284 284 276 272 269 264 257 247 249 251 256 257 260 271 245 245 261 267 259 234 192 184 184 183 188 182
317 309 297 286 284 284 287 285 273 280 290 292 295 290 292 295 289 284 280 274 265 266 243 236 245 258 253 248 249 268 270 244 194 169 191 201 192 183
319 294 286 284 293 298 297 292 289 293 301 301 300 300 295 297 308 318 313 312 291 279 286 300 286 262 245 250 235 231 222 229 210 200 206 218 218 193
306 291 300 305 314 317 316 315 317 322 316 310 309 311 310 303 305 319 320 310 302 294 293 293 305 302 311 12 355 230 205 206 216 220 203 194 222 197
303 306 318 322 318 317 323 329 329 327 326 324 323 321 316 311 311 311 303 302 304 308 297 273 262 268 269 279 306 302 227 218 233 238 215 202 205 195
297 311 317 320 322 326 333 333 330 328 329 325 328 329 326 320 318 310 308 313 312 307 304 302 280 248 240 250 256 288 260 228 208 216 197 139 108 108
332 329 327 330 333 334 337 335 334 330 335 328 327 328 327 326 321 318 320 319 310 307 312 309 285 261 249 196 157 221 182 205 207 195 182 171 189 191
327 330 328 331 338 341 345 340 338 342 340 338 337 332 329 322 318 316 318 317 313 313 315 308 288 271 243 203 203 204 194 156 126 82 32 276 205 208
332 325 321 335 350 352 354 349 349 346 344 342 336 326 325 325 323 319 313 309 306 313 317 311 309 288 257 224 204 190 165 167 160 130 83 264 208 188